This demonstration page uses our WeatherBlox Daily Observations layout. Learn more.

Left ArrowRight Arrow

39.08367, -84.50855

Hourly Observations for September 2, 2015

Temp ( °F °C ) Dew Point ( °F °C ) Humidity (%) Winds ( mph kmh ) Pressure ( in mb ) Visibility ( mi km ) Precip ( " mm )
12:53 am 00:53 Clear with Mist and Fog 69 20.6 68 20 96 96 Calm 30.11 1020 3 5 0.00 0.00
1:41 am 01:41 Clear with Mist and Fog 68 20 68 20 100 100 Calm 30.09 1019 3 4 0.00 0.00
1:49 am 01:49 Clear with Mist and Fog 68 20 68 20 100 100 Calm 30.09 1019 3 5 0.00 0.00
1:53 am 01:53 Clear with Mist and Fog 68 20 68 20 100 100 Calm 30.11 1020 3 5 0.00 0.00
2:22 am 02:22 Clear with Mist and Fog 68 20 68 20 100 100 Calm 30.09 1019 3 4 0.00 0.00
2:32 am 02:32 Clear with Mist and Fog 68 20 66 19 94 94 Calm 30.09 1019 4 6 0.00 0.00
2:51 am 02:51 Clear with Mist and Fog 66 19 66 19 100 100 Calm 30.09 1019 2 3 0.00 0.00
2:53 am 02:53 Clear with Mist and Fog 67 19.4 67 19.4 100 100 Calm 30.09 1019 2 3 0.00 0.00
3:14 am 03:14 Mostly Cloudy with Mist and Fog 66 19 66 19 100 100 Calm 30.06 1018 1 1 0.00 0.00
3:27 am 03:27 Mostly Cloudy with Mist and Fog 66 18.9 66 18.9 100 100 Calm 30.09 1019 1 2 0.00 0.00
3:29 am 03:29 Mostly Clear with Mist and Fog 66 18.9 66 18.9 100 100 Calm 30.09 1019 2 3 0.00 0.00
3:46 am 03:46 Clear with Mist and Fog 66 19 66 19 100 100 Calm 30.09 1019 3 5 0.00 0.00
3:51 am 03:51 Clear with Mist and Fog 66 19 66 19 100 100 Calm 30.09 1019 2 2 0.00 0.00
3:53 am 03:53 Clear with Mist and Fog 66 18.9 66 18.9 100 100 Calm 30.09 1019 1 2 0.00 0.00
4:24 am 04:24 Clear with Mist and Fog 66 19 66 19 100 100 Calm 30.09 1019 3 4 0.00 0.00
4:34 am 04:34 Clear with Mist and Fog 66 19 66 19 100 100 Calm 30.09 1019 1 1 0.00 0.00
4:41 am 04:41 Mostly Cloudy with Fog 66 18.9 66 18.9 100 100 Calm 30.09 1019 1 1 0.00 0.00
4:53 am 04:53 Mostly Cloudy with Mist and Fog 67 19.4 67 19.4 100 100 Calm 30.10 1019 1 1 0.00 0.00
4:55 am 04:55 Mostly Clear with Mist and Fog 67 19.4 67 19.4 100 100 Calm 30.09 1019 1 2 0.00 0.00
5:04 am 05:04 Mostly Cloudy with Fog 65 18.3 65 18.3 100 100 Calm 30.09 1019 0 0 0.00 0.00
5:16 am 05:16 Mostly Cloudy with Mist and Fog 66 19 66 19 100 100 Calm 30.09 1019 1 2 0.00 0.00
5:19 am 05:19 Mostly Clear with Mist and Fog 66 18.9 66 18.9 100 100 Calm 30.09 1019 2 3 0.00 0.00
5:27 am 05:27 Mostly Clear with Mist and Fog 66 18.9 66 18.9 100 100 Calm 30.09 1019 3 5 0.00 0.00
5:37 am 05:37 Clear with Mist and Fog 65 18.3 65 18.3 100 100 Calm 30.09 1019 2 3 0.00 0.00
5:53 am 05:53 Clear with Mist and Fog 66 18.9 66 18.9 100 100 Calm 30.10 1019 1 1 0.00 0.00
6:17 am 06:17 Clear with Mist and Fog 65 18.3 65 18.3 100 100 Calm 30.09 1019 1 2 0.00 0.00
6:45 am 06:45 Mostly Cloudy with Fog 65 18.3 65 18.3 100 100 Calm 30.09 1019 1 1 0.00 0.00
6:53 am 06:53 Mostly Cloudy with Mist and Fog 65 18.3 65 18.3 100 100 Calm 30.11 1020 1 1 0.00 0.00
7:53 am 07:53 Mostly Cloudy with Fog 65 18.3 65 18.3 100 100 Calm 30.13 1020 1 1 0.00 0.00
7:55 am 07:55 Mostly Cloudy with Mist and Fog 66 18.9 66 18.9 100 100 Calm 30.12 1020 1 2 0.00 0.00
8:05 am 08:05 Partly Cloudy with Mist and Fog 67 19.4 67 19.4 100 100 Calm 30.12 1020 2 2 0.00 0.00
8:53 am 08:53 Sunny with Mist and Fog 70 21.1 69 20.6 97 97 Calm 30.13 1020 3 4 0.00 0.00
9:01 am 09:01 Sunny with Mist and Fog 71 21.7 70 21.1 96 96 Calm 30.12 1020 3 5 0.00 0.00
9:53 am 09:53 Hazy 77 25 71 21.7 82 82 Calm 30.13 1020 5 8 0.00 0.00
10:53 am 10:53 Sunny 81 27.2 71 21.7 72 72 VRB 3 6 30.13 1020 8 13 0.00 0.00
11:53 am 11:53 Sunny 84 28.9 68 20 59 59 SW 7 11 30.12 1020 8 13 0.00 0.00
12:53 pm 12:53 Partly Cloudy 85 29.4 69 20.6 59 59 Calm 30.10 1019 10 16 0.00 0.00
1:53 pm 13:53 Sunny 87 30.6 68 20 53 53 S 5 7 30.07 1018 9 14 0.00 0.00
2:53 pm 14:53 Mostly Sunny 89 31.7 67 19.4 48 48 Calm 30.05 1018 10 16 0.00 0.00
3:53 pm 15:53 Mostly Cloudy 89 31.7 67 19.4 48 48 VRB 5 7 30.02 1017 9 14 0.00 0.00
4:53 pm 16:53 Partly Cloudy 88 31.1 68 20 52 52 W 8 13 30.01 1016 10 16 0.00 0.00
5:53 pm 17:53 Mostly Sunny 89 31.7 67 19.4 48 48 W 13 20 29.98 1015 10 16 0.00 0.00
6:53 pm 18:53 Mostly Cloudy with Nearby Thunderstorms 82 27.8 70 21.1 67 67 ENE 10 17 30.00 1016 9 14 0.00 0.00
7:13 pm 19:13 Mostly Cloudy 81 27.2 69 20.6 67 67 Calm 30.00 1016 10 16 0.00 0.00
7:53 pm 19:53 Mostly Sunny 77 25 69 20.6 77 77 NE 6 9 30.01 1016 10 16 0.00 0.00
8:53 pm 20:53 Partly Cloudy 76 24.4 69 20.6 79 79 Calm 30.01 1016 10 16 0.00 0.00
9:53 pm 21:53 Clear 72 22.2 69 20.6 91 91 ENE 3 6 30.03 1017 8 13 0.00 0.00
10:53 pm 22:53 Mostly Clear with Mist and Fog 71 21.7 69 20.6 94 94 Calm 30.03 1017 6 10 0.00 0.00
11:53 pm 23:53 Clear with Mist and Fog 70 21.1 69 20.6 97 97 Calm 30.02 1017 6 10 0.00 0.00

Powered by AerisWeather